Location: Bailleul
(50.3375°N, 2.8513°E)
Time: 20:47:10
(UTC+00:00)

Cosmos 2219 Rocket - Pass Details

Date: 19 April 2021
Orbit: 826 x 848 km, 71.0° (Epoch: 17 May)

Event Time Altitude Azimuth Distance (km) Brightness Sun altitude
Rises 20:33:32 0° 323° (NW) 3,422 7.0 -15.1°
Reaches altitude 10° 20:36:19 10° 312° (NW) 2,482 6.0 -15.5°
Maximum altitude 20:41:00 27° 256° (WSW) 1,578 4.0 -16.0°
Drops below altitude 10° 20:45:40 10° 201° (SSW) 2,465 4.4 -16.6°
Enters shadow 20:47:24 - 193° (SSW) 3,036 4.8 -16.8°
